| time (UTC) | temp F | wind direction | speed MPH | gust MPH | rain 1hr in | rain 24hr in | rain mn in | humidity % | barometer mb |
| 20260831210505 | 77 | 254 | 5.0 | 10.0 | 0.00 | 0.00 | 0.00 | 42 | 1013.9 |
| 20260831210005 | 78 | 226 | 6.0 | 12.0 | 0.00 | 0.00 | 0.00 | 42 | 1013.8 |
| 20260831205504 | 78 | 193 | 6.0 | 12.0 | 0.00 | 0.00 | 0.00 | 43 | 1013.8 |
| 20260831205004 | 78 | 193 | 6.0 | 12.0 | 0.00 | 0.00 | 0.00 | 41 | 1013.7 |
| 20260831204504 | 78 | 204 | 6.0 | 12.0 | 0.00 | 0.00 | 0.00 | 41 | 1013.6 |
| 20260831204005 | 79 | 230 | 5.0 | 12.0 | 0.00 | 0.00 | 0.00 | 41 | 1013.7 |
| 20260831203504 | 79 | 273 | 5.0 | 12.0 | 0.00 | 0.00 | 0.00 | 41 | 1013.7 |
| 20260831203005 | 79 | 238 | 2.0 | 9.0 | 0.00 | 0.00 | 0.00 | 40 | 1013.8 |
| 20260831202505 | 78 | 216 | 4.0 | 13.0 | 0.00 | 0.00 | 0.00 | 40 | 1013.8 |
| 20260831202005 | 79 | 203 | 7.0 | 15.0 | 0.00 | 0.00 | 0.00 | 39 | 1013.7 |
| 20260831201505 | 79 | 181 | 6.0 | 15.0 | 0.00 | 0.00 | 0.00 | 40 | 1013.6 |
| 20260831201005 | 79 | 189 | 5.0 | 10.0 | 0.00 | 0.00 | 0.00 | 38 | 1013.6 |
| 20260831200505 | 79 | 205 | 6.0 | 12.0 | 0.00 | 0.00 | 0.00 | 38 | 1013.7 |
| 20260831200005 | 80 | 260 | 5.0 | 12.0 | 0.00 | 0.00 | 0.00 | 38 | 1013.8 |
| 20260831195504 | 80 | 178 | 5.0 | 12.0 | 0.00 | 0.00 | 0.00 | 37 | 1013.6 |
| 20260831195005 | 79 | 219 | 8.0 | 12.0 | 0.00 | 0.00 | 0.00 | 38 | 1013.6 |
| 20260831194505 | 80 | 282 | 6.0 | 12.0 | 0.00 | 0.00 | 0.00 | 38 | 1013.6 |
| 20260831194004 | 79 | 228 | 3.0 | 7.0 | 0.00 | 0.00 | 0.00 | 39 | 1013.7 |
| 20260831193505 | 79 | 206 | 6.0 | 14.0 | 0.00 | 0.00 | 0.00 | 38 | 1013.7 |
| 20260831192005 | 82 | 177 | 6.0 | 12.0 | 0.00 | 0.00 | 0.00 | 33 | 1014.0 |
| 20260831191505 | 81 | 217 | 5.0 | 12.0 | 0.00 | 0.00 | 0.00 | 34 | 1014.0 |
| 20260831191005 | 80 | 198 | 6.0 | 12.0 | 0.00 | 0.00 | 0.00 | 35 | 1013.8 |
| 20260831190504 | 80 | 216 | 4.0 | 13.0 | 0.00 | 0.00 | 0.00 | 35 | 1013.8 |
| 20260831190004 | 80 | 155 | 7.0 | 14.0 | 0.00 | 0.00 | 0.00 | 35 | 1013.9 |
| 20260831185504 | 80 | 195 | 7.0 | 15.0 | 0.00 | 0.00 | 0.00 | 35 | 1013.9 |
| 20260831185005 | 80 | 187 | 5.0 | 12.0 | 0.00 | 0.00 | 0.00 | 35 | 1013.9 |
| 20260831184505 | 80 | 200 | 7.0 | 13.0 | 0.00 | 0.00 | 0.00 | 35 | 1014.0 |
| 20260831183005 | 80 | 179 | 7.0 | 12.0 | 0.00 | 0.00 | 0.00 | 35 | 1013.9 |
| 20260831182004 | 79 | 213 | 5.0 | 10.0 | 0.00 | 0.00 | 0.00 | 37 | 1013.9 |
| 20260831181505 | 79 | 210 | 5.0 | 8.0 | 0.00 | 0.00 | 0.00 | 37 | 1013.9 |
| 20260831181005 | 79 | 219 | 6.0 | 10.0 | 0.00 | 0.00 | 0.00 | 37 | 1013.8 |
| 20260831180505 | 79 | 216 | 7.0 | 12.0 | 0.00 | 0.00 | 0.00 | 36 | 1013.8 |
| 20260831175505 | 79 | 183 | 6.0 | 9.0 | 0.00 | 0.00 | 0.00 | 38 | 1013.9 |
| 20260831175005 | 78 | 192 | 7.0 | 12.0 | 0.00 | 0.00 | 0.00 | 38 | 1013.9 |
| 20260831174504 | 78 | 220 | 7.0 | 10.0 | 0.00 | 0.00 | 0.00 | 38 | 1013.9 |
| 20260831174005 | 78 | 198 | 6.0 | 12.0 | 0.00 | 0.00 | 0.00 | 38 | 1013.8 |
| 20260831173505 | 79 | 211 | 4.0 | 8.0 | 0.00 | 0.00 | 0.00 | 39 | 1013.8 |
| 20260831173004 | 78 | 201 | 4.0 | 8.0 | 0.00 | 0.00 | 0.00 | 40 | 1013.8 |
| 20260831172504 | 78 | 186 | 3.0 | 8.0 | 0.00 | 0.00 | 0.00 | 40 | 1013.7 |
| 20260831171504 | 77 | 207 | 2.0 | 8.0 | 0.00 | 0.00 | 0.00 | 40 | 1013.5 |
| 20260831171005 | 77 | 188 | 2.0 | 8.0 | 0.00 | 0.00 | 0.00 | 40 | 1013.4 |
| 20260831170004 | 77 | 240 | 5.0 | 8.0 | 0.00 | 0.00 | 0.00 | 40 | 1013.5 |
| 20260831165504 | 77 | 189 | 5.0 | 8.0 | 0.00 | 0.00 | 0.00 | 40 | 1013.6 |
| 20260831165005 | 77 | 218 | 5.0 | 10.0 | 0.00 | 0.00 | 0.00 | 41 | 1013.4 |
| 20260831164505 | 77 | 210 | 4.0 | 10.0 | 0.00 | 0.00 | 0.00 | 40 | 1013.5 |
| 20260831164004 | 77 | 208 | 5.0 | 7.0 | 0.00 | 0.00 | 0.00 | 38 | 1013.5 |
| 20260831163505 | 77 | 218 | 3.0 | 5.0 | 0.00 | 0.00 | 0.00 | 40 | 1013.5 |
| 20260831163004 | 76 | 194 | 3.0 | 7.0 | 0.00 | 0.00 | 0.00 | 41 | 1013.4 |
| 20260831162505 | 76 | 169 | 5.0 | 8.0 | 0.00 | 0.00 | 0.00 | 40 | 1013.4 |
| 20260831162005 | 75 | 158 | 3.0 | 7.0 | 0.00 | 0.00 | 0.00 | 42 | 1013.2 |
| 20260831161504 | 75 | 227 | 3.0 | 7.0 | 0.00 | 0.00 | 0.00 | 44 | 1013.3 |
| 20260831161005 | 74 | 153 | 3.0 | 3.0 | 0.00 | 0.00 | 0.00 | 44 | 1013.4 |
| 20260831160504 | 74 | 128 | 2.0 | 3.0 | 0.00 | 0.00 | 0.00 | 43 | 1013.4 |
| 20260831160005 | 73 | 123 | 2.0 | 3.0 | 0.00 | 0.00 | 0.00 | 44 | 1013.3 |
| 20260831155504 | 73 | 123 | 1.0 | 3.0 | 0.00 | 0.00 | 0.00 | 44 | 1013.3 |
| 20260831155005 | 73 | 123 | 1.0 | 3.0 | 0.00 | 0.00 | 0.00 | 44 | 1013.4 |
| 20260831154504 | 72 | 123 | 1.0 | 2.0 | 0.00 | 0.00 | 0.00 | 44 | 1013.3 |
| 20260831153504 | 72 | 123 | 0.0 | 0.0 | 0.00 | 0.00 | 0.00 | 45 | 1013.4 |
| 20260831152505 | 72 | 123 | 0.0 | 2.0 | 0.00 | 0.00 | 0.00 | 45 | 1013.4 |
| 20260831152004 | 72 | 123 | 0.0 | 0.0 | 0.00 | 0.00 | 0.00 | 45 | 1013.4 |
| 20260831151504 | 72 | 123 | 0.0 | 2.0 | 0.00 | 0.00 | 0.00 | 44 | 1013.4 |
| 20260831150505 | 72 | 123 | 1.0 | 2.0 | 0.00 | 0.00 | 0.00 | 43 | 1013.4 |
| 20260831150005 | 72 | 123 | 1.0 | 3.0 | 0.00 | 0.00 | 0.00 | 43 | 1013.4 |
| 20260831145504 | 71 | 123 | 2.0 | 3.0 | 0.00 | 0.00 | 0.00 | 44 | 1013.2 |
| 20260831145005 | 71 | 123 | 2.0 | 3.0 | 0.00 | 0.00 | 0.00 | 44 | 1013.2 |
| 20260831144005 | 70 | 123 | 2.0 | 3.0 | 0.00 | 0.00 | 0.00 | 44 | 1013.1 |
| 20260831143504 | 70 | 123 | 4.0 | 5.0 | 0.00 | 0.00 | 0.00 | 44 | 1013.0 |
| 20260831143005 | 70 | 126 | 4.0 | 5.0 | 0.00 | 0.00 | 0.00 | 44 | 1013.1 |
| 20260831142504 | 70 | 128 | 3.0 | 5.0 | 0.00 | 0.00 | 0.00 | 44 | 1013.0 |
| 20260831142004 | 70 | 129 | 3.0 | 5.0 | 0.00 | 0.00 | 0.00 | 45 | 1013.1 |
| 20260831141505 | 70 | 129 | 2.0 | 3.0 | 0.00 | 0.00 | 0.00 | 45 | 1013.1 |
| 20260831141005 | 70 | 129 | 2.0 | 3.0 | 0.00 | 0.00 | 0.00 | 45 | 1013.1 |
| 20260831140504 | 70 | 129 | 2.0 | 3.0 | 0.00 | 0.00 | 0.00 | 45 | 1013.0 |
| 20260831135505 | 69 | 129 | 2.0 | 3.0 | 0.00 | 0.00 | 0.00 | 45 | 1013.0 |
| 20260831135004 | 69 | 129 | 2.0 | 3.0 | 0.00 | 0.00 | 0.00 | 46 | 1012.9 |
| 20260831134504 | 69 | 129 | 2.0 | 3.0 | 0.00 | 0.00 | 0.00 | 46 | 1012.8 |
| 20260831134004 | 69 | 129 | 2.0 | 3.0 | 0.00 | 0.00 | 0.00 | 47 | 1013.0 |
| 20260831133504 | 69 | 129 | 2.0 | 3.0 | 0.00 | 0.00 | 0.00 | 46 | 1012.9 |
| 20260831133004 | 69 | 129 | 2.0 | 2.0 | 0.00 | 0.00 | 0.00 | 46 | 1012.8 |
| 20260831132504 | 69 | 129 | 1.0 | 2.0 | 0.00 | 0.00 | 0.00 | 46 | 1012.9 |
| 20260831132004 | 69 | 129 | 2.0 | 3.0 | 0.00 | 0.00 | 0.00 | 45 | 1012.8 |
| 20260831131505 | 69 | 129 | 1.0 | 3.0 | 0.00 | 0.00 | 0.00 | 46 | 1012.8 |
| 20260831130504 | 69 | 252 | 0.0 | 2.0 | 0.00 | 0.00 | 0.00 | 46 | 1012.6 |
| 20260831130005 | 68 | 252 | 1.0 | 2.0 | 0.00 | 0.00 | 0.00 | 47 | 1012.7 |
| 20260831125504 | 68 | 252 | 0.0 | 2.0 | 0.00 | 0.00 | 0.00 | 47 | 1012.7 |
| 20260831125004 | 69 | 252 | 1.0 | 2.0 | 0.00 | 0.00 | 0.00 | 47 | 1012.7 |
| 20260831124504 | 69 | 252 | 1.0 | 2.0 | 0.00 | 0.00 | 0.00 | 46 | 1012.7 |
| 20260831124005 | 69 | 252 | 1.0 | 3.0 | 0.00 | 0.00 | 0.00 | 46 | 1012.7 |
| 20260831123504 | 69 | 252 | 0.0 | 0.0 | 0.00 | 0.00 | 0.00 | 46 | 1012.6 |
| 20260831123004 | 69 | 252 | 0.0 | 0.0 | 0.00 | 0.00 | 0.00 | 46 | 1012.7 |
| 20260831122505 | 70 | 252 | 0.0 | 0.0 | 0.00 | 0.00 | 0.00 | 46 | 1012.6 |
| 20260831122004 | 70 | 252 | 0.0 | 0.0 | 0.00 | 0.00 | 0.00 | 46 | 1012.6 |
| 20260831121504 | 70 | 252 | 0.0 | 2.0 | 0.00 | 0.00 | 0.00 | 46 | 1012.5 |
| 20260831121005 | 70 | 252 | 1.0 | 3.0 | 0.00 | 0.00 | 0.00 | 46 | 1012.5 |
| 20260831120504 | 70 | 252 | 2.0 | 3.0 | 0.00 | 0.00 | 0.00 | 46 | 1012.5 |
| 20260831120005 | 70 | 252 | 2.0 | 3.0 | 0.00 | 0.00 | 0.00 | 46 | 1012.7 |
| 20260831115504 | 69 | 252 | 1.0 | 3.0 | 0.00 | 0.00 | 0.00 | 47 | 1012.7 |
| 20260831115004 | 69 | 252 | 1.0 | 2.0 | 0.00 | 0.00 | 0.00 | 48 | 1012.6 |
| 20260831114004 | 69 | 252 | 2.0 | 3.0 | 0.00 | 0.00 | 0.00 | 48 | 1012.6 |
| 20260831113504 | 69 | 252 | 1.0 | 2.0 | 0.00 | 0.00 | 0.00 | 48 | 1012.7 |
| 20260831113005 | 69 | 252 | 1.0 | 2.0 | 0.00 | 0.00 | 0.00 | 48 | 1012.8 |
| 20260831112505 | 69 | 252 | 0.0 | 2.0 | 0.00 | 0.00 | 0.00 | 48 | 1012.8 |
| 20260831112004 | 69 | 252 | 0.0 | 0.0 | 0.00 | 0.00 | 0.00 | 48 | 1012.9 |
| 20260831111504 | 69 | 252 | 0.0 | 0.0 | 0.00 | 0.00 | 0.00 | 48 | 1012.6 |
| 20260831111004 | 69 | 252 | 0.0 | 0.0 | 0.00 | 0.00 | 0.00 | 48 | 1012.6 |
| 20260831110504 | 69 | 252 | 0.0 | 0.0 | 0.00 | 0.00 | 0.00 | 48 | 1012.6 |
| 20260831110004 | 69 | 252 | 0.0 | 0.0 | 0.00 | 0.00 | 0.00 | 49 | 1012.9 |
| 20260831104504 | 69 | 252 | 0.0 | 0.0 | 0.00 | 0.00 | 0.00 | 49 | 1012.8 |
| 20260831103004 | 68 | 252 | 1.0 | 2.0 | 0.00 | 0.00 | 0.00 | 49 | 1012.8 |
| 20260831102504 | 68 | 252 | 1.0 | 2.0 | 0.00 | 0.00 | 0.00 | 49 | 1012.9 |
| 20260831102005 | 68 | 252 | 0.0 | 1.0 | 0.00 | 0.00 | 0.00 | 50 | 1012.9 |
| 20260831101505 | 68 | 252 | 0.0 | 0.0 | 0.00 | 0.00 | 0.00 | 50 | 1012.9 |
| 20260831101004 | 68 | 252 | 0.0 | 0.0 | 0.00 | 0.00 | 0.00 | 50 | 1012.9 |
| 20260831100504 | 68 | 252 | 0.0 | 0.0 | 0.00 | 0.00 | 0.00 | 50 | 1012.8 |
| 20260831100004 | 68 | 252 | 0.0 | 0.0 | 0.00 | 0.00 | 0.00 | 49 | 1012.6 |
| 20260831095504 | 68 | 252 | 0.0 | 0.0 | 0.00 | 0.00 | 0.00 | 49 | 1012.7 |
| 20260831095004 | 68 | 252 | 1.0 | 2.0 | 0.00 | 0.00 | 0.00 | 49 | 1012.6 |
| 20260831094504 | 69 | 252 | 2.0 | 3.0 | 0.00 | 0.00 | 0.00 | 49 | 1012.6 |
| 20260831094004 | 69 | 252 | 0.0 | 1.0 | 0.00 | 0.00 | 0.00 | 49 | 1012.6 |
| 20260831092504 | 69 | 252 | 1.0 | 2.0 | 0.00 | 0.00 | 0.00 | 49 | 1012.6 |
| 20260831091503 | 69 | 252 | 1.0 | 2.0 | 0.00 | 0.00 | 0.00 | 49 | 1012.7 |
| 20260831091004 | 69 | 252 | 1.0 | 2.0 | 0.00 | 0.00 | 0.00 | 50 | 1012.7 |
| 20260831090504 | 68 | 252 | 1.0 | 3.0 | 0.00 | 0.00 | 0.00 | 50 | 1012.8 |
| 20260831085504 | 68 | 252 | 1.0 | 2.0 | 0.00 | 0.00 | 0.00 | 51 | 1012.9 |
| 20260831084504 | 67 | 252 | 1.0 | 2.0 | 0.00 | 0.00 | 0.00 | 51 | 1012.8 |
| 20260831083504 | 67 | 252 | 2.0 | 3.0 | 0.00 | 0.00 | 0.00 | 52 | 1013.0 |
| 20260831082505 | 67 | 252 | 0.0 | 0.0 | 0.00 | 0.00 | 0.00 | 52 | 1013.1 |
| 20260831082004 | 67 | 252 | 0.0 | 0.0 | 0.00 | 0.00 | 0.00 | 52 | 1013.1 |
| 20260831081504 | 67 | 252 | 0.0 | 0.0 | 0.00 | 0.00 | 0.00 | 52 | 1013.2 |
| 20260831081004 | 67 | 252 | 0.0 | 0.0 | 0.00 | 0.00 | 0.00 | 52 | 1013.2 |
| 20260831080504 | 67 | 252 | 0.0 | 0.0 | 0.00 | 0.00 | 0.00 | 52 | 1013.2 |
| 20260831080005 | 67 | 252 | 0.0 | 0.0 | 0.00 | 0.00 | 0.00 | 52 | 1013.3 |
| 20260831075504 | 67 | 252 | 0.0 | 0.0 | 0.00 | 0.00 | 0.00 | 52 | 1013.3 |
| 20260831074004 | 67 | 252 | 0.0 | 0.0 | 0.00 | 0.00 | 0.00 | 52 | 1013.3 |
| 20260831073504 | 67 | 252 | 0.0 | 0.0 | 0.00 | 0.00 | 0.00 | 51 | 1013.2 |
| 20260831072504 | 67 | 252 | 0.0 | 0.0 | 0.00 | 0.00 | 0.00 | 51 | 1013.3 |
| 20260831072004 | 67 | 252 | 0.0 | 0.0 | 0.00 | 0.00 | 0.00 | 52 | 1013.1 |
| 20260831071504 | 66 | 252 | 0.0 | 0.0 | 0.00 | 0.00 | 0.00 | 52 | 1013.3 |
| 20260831071006 | 67 | 252 | 0.0 | 0.0 | 0.00 | 0.00 | 0.00 | 52 | 1013.3 |
| 20260831070504 | 67 | 252 | 0.0 | 0.0 | 0.00 | 0.00 | 0.00 | 52 | 1013.2 |
| 20260831070004 | 67 | 252 | 0.0 | 0.0 | 0.00 | 0.00 | 0.00 | 51 | 1013.3 |
| 20260831065504 | 67 | 252 | 0.0 | 0.0 | 0.00 | 0.00 | 0.00 | 51 | 1013.3 |
| 20260831065004 | 67 | 252 | 0.0 | 0.0 | 0.00 | 0.00 | 0.00 | 51 | 1013.3 |
| 20260831064504 | 67 | 252 | 0.0 | 0.0 | 0.00 | 0.00 | 0.00 | 51 | 1013.3 |
| 20260831064004 | 67 | 252 | 0.0 | 0.0 | 0.00 | 0.00 | 0.00 | 51 | 1013.4 |
| 20260831063504 | 67 | 252 | 0.0 | 0.0 | 0.00 | 0.00 | 0.00 | 51 | 1013.2 |
| 20260831063004 | 67 | 252 | 0.0 | 0.0 | 0.00 | 0.00 | 0.00 | 50 | 1013.4 |
| 20260831062504 | 67 | 252 | 0.0 | 0.0 | 0.00 | 0.00 | 0.00 | 50 | 1013.3 |
| 20260831061504 | 67 | 252 | 0.0 | 0.0 | 0.00 | 0.00 | 0.00 | 49 | 1013.4 |
| 20260831061004 | 68 | 252 | 0.0 | 0.0 | 0.00 | 0.00 | 0.00 | 49 | 1013.5 |
| 20260831060004 | 68 | 252 | 0.0 | 0.0 | 0.00 | 0.00 | 0.00 | 49 | 1013.5 |
| 20260831055504 | 68 | 252 | 0.0 | 0.0 | 0.00 | 0.00 | 0.00 | 49 | 1013.5 |
| 20260831053504 | 68 | 252 | 0.0 | 0.0 | 0.00 | 0.00 | 0.00 | 48 | 1013.6 |
| 20260831053005 | 68 | 252 | 0.0 | 0.0 | 0.00 | 0.00 | 0.00 | 48 | 1013.6 |
| 20260831052504 | 68 | 252 | 0.0 | 0.0 | 0.00 | 0.00 | 0.00 | 49 | 1013.6 |
| 20260831052004 | 68 | 252 | 0.0 | 0.0 | 0.00 | 0.00 | 0.00 | 49 | 1013.8 |
| 20260831051504 | 69 | 252 | 0.0 | 0.0 | 0.00 | 0.00 | 0.00 | 49 | 1013.8 |
| 20260831051005 | 69 | 252 | 0.0 | 0.0 | 0.00 | 0.00 | 0.00 | 49 | 1013.8 |
| 20260831050504 | 69 | 252 | 0.0 | 0.0 | 0.00 | 0.00 | 0.00 | 49 | 1013.7 |
| 20260831050003 | 69 | 252 | 0.0 | 0.0 | 0.00 | 0.00 | 0.00 | 48 | 1013.9 |
| 20260831045504 | 69 | 252 | 0.0 | 0.0 | 0.00 | 0.00 | 0.00 | 47 | 1013.9 |
| 20260831045004 | 69 | 252 | 0.0 | 0.0 | 0.00 | 0.00 | 0.00 | 46 | 1013.9 |
| 20260831044004 | 70 | 252 | 0.0 | 0.0 | 0.00 | 0.00 | 0.00 | 45 | 1013.8 |
| 20260831043504 | 70 | 252 | 0.0 | 0.0 | 0.00 | 0.00 | 0.00 | 45 | 1013.8 |
| 20260831042504 | 70 | 252 | 0.0 | 0.0 | 0.00 | 0.00 | 0.00 | 43 | 1013.8 |
| 20260831041004 | 71 | 252 | 0.0 | 0.0 | 0.00 | 0.00 | 0.00 | 42 | 1013.6 |
| 20260831040504 | 71 | 252 | 0.0 | 0.0 | 0.00 | 0.00 | 0.00 | 42 | 1013.6 |
| 20260831035016 | 71 | 252 | 0.0 | 0.0 | 0.00 | 0.00 | 0.00 | 43 | 1013.5 |
| 20260831034504 | 71 | 252 | 0.0 | 0.0 | 0.00 | 0.00 | 0.00 | 44 | 1013.6 |
| 20260831034004 | 71 | 252 | 0.0 | 0.0 | 0.00 | 0.00 | 0.00 | 44 | 1013.7 |
| 20260831033503 | 72 | 252 | 0.0 | 0.0 | 0.00 | 0.00 | 0.00 | 44 | 1013.6 |
| 20260831033004 | 72 | 252 | 0.0 | 0.0 | 0.00 | 0.00 | 0.00 | 42 | 1013.5 |
| 20260831032004 | 72 | 252 | 0.0 | 0.0 | 0.00 | 0.00 | 0.00 | 42 | 1013.3 |
| 20260831031504 | 73 | 252 | 0.0 | 0.0 | 0.00 | 0.00 | 0.00 | 41 | 1013.4 |
| 20260831031004 | 73 | 252 | 0.0 | 0.0 | 0.00 | 0.00 | 0.00 | 41 | 1013.3 |
| 20260831030503 | 73 | 252 | 0.0 | 0.0 | 0.00 | 0.00 | 0.00 | 40 | 1013.4 |
| 20260831030004 | 73 | 252 | 0.0 | 0.0 | 0.00 | 0.00 | 0.00 | 41 | 1013.4 |
| 20260831025004 | 74 | 252 | 0.0 | 0.0 | 0.00 | 0.00 | 0.00 | 40 | 1013.5 |
| 20260831024504 | 75 | 252 | 0.0 | 0.0 | 0.00 | 0.00 | 0.00 | 40 | 1013.4 |
| 20260831024004 | 75 | 252 | 0.0 | 0.0 | 0.00 | 0.00 | 0.00 | 40 | 1013.4 |
| 20260831022504 | 77 | 252 | 0.0 | 2.0 | 0.00 | 0.00 | 0.00 | 39 | 1013.5 |
| 20260831022004 | 77 | 252 | 0.0 | 1.0 | 0.00 | 0.00 | 0.00 | 38 | 1013.5 |
| 20260831021505 | 77 | 252 | 0.0 | 2.0 | 0.00 | 0.00 | 0.00 | 38 | 1013.4 |
| 20260831021005 | 78 | 252 | 0.0 | 2.0 | 0.00 | 0.00 | 0.00 | 38 | 1013.3 |
| 20260831020505 | 78 | 252 | 1.0 | 3.0 | 0.00 | 0.00 | 0.00 | 38 | 1013.4 |
| 20260831020005 | 78 | 252 | 1.0 | 2.0 | 0.00 | 0.00 | 0.00 | 38 | 1013.4 |
| 20260831015505 | 79 | 252 | 1.0 | 3.0 | 0.00 | 0.00 | 0.00 | 37 | 1013.4 |
| 20260831014505 | 79 | 252 | 2.0 | 3.0 | 0.00 | 0.00 | 0.00 | 37 | 1013.3 |
| 20260831014005 | 80 | 252 | 1.0 | 5.0 | 0.00 | 0.00 | 0.00 | 37 | 1013.5 |
| 20260831013505 | 80 | 251 | 2.0 | 5.0 | 0.00 | 0.00 | 0.00 | 36 | 1013.4 |
| 20260831013005 | 81 | 248 | 1.0 | 2.0 | 0.00 | 0.00 | 0.00 | 36 | 1013.5 |
| 20260831012505 | 81 | 248 | 2.0 | 3.0 | 0.00 | 0.00 | 0.00 | 36 | 1013.5 |
| 20260831012005 | 81 | 248 | 2.0 | 5.0 | 0.00 | 0.00 | 0.00 | 36 | 1013.5 |
| 20260831011005 | 82 | 266 | 2.0 | 7.0 | 0.00 | 0.00 | 0.00 | 36 | 1013.6 |
| 20260831010005 | 82 | 300 | 1.0 | 5.0 | 0.00 | 0.00 | 0.00 | 35 | 1013.6 |
| 20260831005505 | 82 | 274 | 1.0 | 5.0 | 0.00 | 0.00 | 0.00 | 36 | 1013.6 |
| 20260831005004 | 81 | 214 | 1.0 | 3.0 | 0.00 | 0.00 | 0.00 | 36 | 1013.6 |
| 20260831004504 | 81 | 266 | 2.0 | 6.0 | 0.00 | 0.00 | 0.00 | 35 | 1013.5 |
| 20260831004005 | 81 | 242 | 2.0 | 6.0 | 0.00 | 0.00 | 0.00 | 36 | 1013.6 |
| 20260831003505 | 81 | 182 | 2.0 | 5.0 | 0.00 | 0.00 | 0.00 | 36 | 1013.6 |
| 20260831003005 | 81 | 203 | 2.0 | 6.0 | 0.00 | 0.00 | 0.00 | 36 | 1013.5 |
| 20260831002004 | 81 | 187 | 3.0 | 5.0 | 0.00 | 0.00 | 0.00 | 36 | 1013.6 |
| 20260831001505 | 81 | 198 | 4.0 | 6.0 | 0.00 | 0.00 | 0.00 | 36 | 1013.7 |
| 20260831000504 | 82 | 188 | 5.0 | 10.0 | 0.00 | 0.00 | 0.00 | 36 | 1013.6 |
| 20260831000005 | 82 | 271 | 3.0 | 7.0 | 0.00 | 0.00 | 0.00 | 36 | 1013.6 |
| 20260830235004 | 82 | 221 | 4.0 | 9.0 | 0.00 | 0.00 | 0.00 | 36 | 1013.7 |
| 20260830234505 | 82 | 258 | 3.0 | 7.0 | 0.00 | 0.00 | 0.00 | 35 | 1013.7 |
| 20260830234005 | 82 | 195 | 5.0 | 12.0 | 0.00 | 0.00 | 0.00 | 36 | 1013.8 |
| 20260830233006 | 82 | 194 | 3.0 | 8.0 | 0.00 | 0.00 | 0.00 | 35 | 1013.8 |
| 20260830232505 | 82 | 192 | 3.0 | 9.0 | 0.00 | 0.00 | 0.00 | 36 | 1013.8 |
| 20260830232005 | 82 | 269 | 2.0 | 6.0 | 0.00 | 0.00 | 0.00 | 35 | 1013.7 |
| 20260830231505 | 83 | 202 | 5.0 | 9.0 | 0.00 | 0.00 | 0.00 | 35 | 1013.8 |
| 20260830231005 | 83 | 193 | 5.0 | 15.0 | 0.00 | 0.00 | 0.00 | 35 | 1013.8 |
| 20260830230005 | 82 | 199 | 5.0 | 9.0 | 0.00 | 0.00 | 0.00 | 36 | 1013.9 |
| 20260830225504 | 82 | 234 | 5.0 | 10.0 | 0.00 | 0.00 | 0.00 | 36 | 1013.9 |
| 20260830225004 | 82 | 212 | 4.0 | 10.0 | 0.00 | 0.00 | 0.00 | 35 | 1013.9 |
| 20260830224505 | 83 | 156 | 6.0 | 10.0 | 0.00 | 0.00 | 0.00 | 35 | 1014.1 |
| 20260830224005 | 83 | 206 | 3.0 | 10.0 | 0.00 | 0.00 | 0.00 | 35 | 1014.0 |
| 20260830223505 | 82 | 249 | 5.0 | 12.0 | 0.00 | 0.00 | 0.00 | 36 | 1014.1 |
| 20260830223005 | 82 | 192 | 5.0 | 12.0 | 0.00 | 0.00 | 0.00 | 35 | 1014.1 |
| 20260830222505 | 82 | 223 | 6.0 | 12.0 | 0.00 | 0.00 | 0.00 | 36 | 1014.1 |
| 20260830222005 | 82 | 230 | 3.0 | 7.0 | 0.00 | 0.00 | 0.00 | 35 | 1014.2 |
| 20260830221505 | 82 | 228 | 5.0 | 9.0 | 0.00 | 0.00 | 0.00 | 35 | 1014.2 |
| 20260830221005 | 83 | 261 | 5.0 | 12.0 | 0.00 | 0.00 | 0.00 | 34 | 1014.4 |
| 20260830220505 | 82 | 252 | 6.0 | 12.0 | 0.00 | 0.00 | 0.00 | 35 | 1014.4 |
| 20260830215504 | 82 | 251 | 6.0 | 12.0 | 0.00 | 0.00 | 0.00 | 35 | 1014.5 |
| 20260830215005 | 83 | 183 | 6.0 | 12.0 | 0.00 | 0.00 | 0.00 | 35 | 1014.5 |
| 20260830214505 | 83 | 189 | 6.0 | 12.0 | 0.00 | 0.00 | 0.00 | 35 | 1014.5 |
| 20260830213505 | 83 | 196 | 3.0 | 12.0 | 0.00 | 0.00 | 0.00 | 33 | 1014.5 |
| 20260830213005 | 83 | 235 | 3.0 | 9.0 | 0.00 | 0.00 | 0.00 | 33 | 1014.6 |
| 20260830212504 | 83 | 319 | 3.0 | 9.0 | 0.00 | 0.00 | 0.00 | 33 | 1014.7 |
| 20260830212004 | 83 | 269 | 4.0 | 12.0 | 0.00 | 0.00 | 0.00 | 33 | 1014.7 |
| 20260830211504 | 84 | 325 | 4.0 | 9.0 | 0.00 | 0.00 | 0.00 | 32 | 1014.7 |
| 20260830211005 | 84 | 291 | 4.0 | 9.0 | 0.00 | 0.00 | 0.00 | 33 | 1014.7 |